Hourly Data Report for July 18, 2021

PRINCE RUPERT
BRITISH COLUMBIA
Current Station Operator: NAVCAN

54°17'10.000" N
130°26'41.000" W
35.40 m
1066482
71022
YPR

Download Data

Hourly Data (July 2021)
Hourly Data Report for July 18, 2021
TIME
LST
Temp Definition
°C
Dew Point Definition
°C
Rel Hum Definition
%
Precip. Amount Definition
mm

Wind Dir Definition
10's deg

Wind Spd Definition
km/h
Visibility Definition
km
Stn Press Definition
kPa
Hmdx Definition


Wind Chill Definition


Weather Definition


00:00 13.4 11.1 86 0.0 8 11 16.1 101.56     LegendNANA
01:00 12.9 11.3 90 0.0 4 9 16.1 101.58     Rain
02:00 12.8 11.2 90 0.0 7 9 16.1 101.60     LegendNANA
03:00 12.3 10.9 91 0.0 5 9 16.1 101.59     LegendNANA
04:00 11.9 10.8 93 0.0 7 13 16.1 101.60     LegendNANA
05:00 11.8 10.6 92 0.0 6 5 16.1 101.61     LegendNANA
06:00 12.0 10.8 92 0.0 LegendMM 4 16.1 101.63     LegendNANA
07:00 13.5 11.1 85 0.0 LegendMM 4 16.1 101.66     LegendNANA
08:00 13.3 11.4 88 0.0   0 16.1 101.67     LegendNANA
09:00 15.3 11.3 77 0.0 23 9 16.1 101.69     LegendNANA
10:00 15.3 11.2 76 0.0 22 9 16.1 101.72     LegendNANA
11:00 15.4 10.6 73 0.0   0 16.1 101.75     LegendNANA
12:00 16.4 10.5 68 0.0 22 8 16.1 101.77     LegendNANA
13:00 16.8 11.7 72 0.0 26 11 16.1 101.79     LegendNANA
14:00 14.2 12.0 87 0.0 25 8 16.1 101.84     LegendNANA
15:00 15.6 11.4 76 0.0 LegendMM 4 16.1 101.85     LegendNANA
16:00 17.0 11.4 69 0.0 LegendMM 8 16.1 101.85     LegendNANA
17:00 15.6 11.9 78 0.0 30 8 16.1 101.87     LegendNANA
18:00 16.7 11.9 73 0.0 34 8 16.1 101.87     LegendNANA
19:00 16.3 11.1 71 0.0 34 9 16.1 101.85     LegendNANA
20:00 15.7 11.3 75 0.0 33 8 16.1 101.83     LegendNANA
21:00 15.3 11.9 80 0.0 36 4 16.1 101.83     LegendNANA
22:00 13.4 12.0 91 0.0 36 8 16.1 101.82     LegendNANA
23:00 13.1 11.5 90 0.0 5 5 16.1 101.80     LegendNANA

Notes on Data Quality.

Legend

  • E = Estimated
  • M = Missing
  • NA = Not Available*
  • [empty] = Indicates an unobserved value
Date modified: